Grand Island, NE

1:13 AM CDT on March 26, 2017 (GMT -0500)
Central Nebraska Regional

Weather History for KGRI - May, 2012

Change the Weather History Date:

Sunday, May 20, 2012

  Actual Average Record
Temperature  
Mean Temperature 62 °F 62 °F  
Max Temperature 72 °F 74 °F 100 °F (1925)
Min Temperature 51 °F 51 °F 33 °F (1997)
Degree Days  
Heating Degree Days 3 4  
Month to date heating degree days 50 137  
Since 1 July heating degree days 5026 6139  
Cooling Degree Days 0 2  
Month to date cooling degree days 87 25  
Year to date cooling degree days 132 36  
Growing Degree Days 12 (Base 50)    
Moisture  
Dew Point 49 °F    
Average Humidity 64    
Maximum Humidity 93    
Minimum Humidity 35    
Precipitation  
Precipitation 0.00 in 0.15 in 2.46 in (2011)
Month to date precipitation 0.41 2.73  
Year to date precipitation 3.86 8.27  
Snow  
Snow 0.00 in 0.00 in T in (1998)
Month to date snowfall 0.0 0.1  
Since 1 July snowfall 20.1 29.1  
Snow Depth 0.00 in    
Sea Level Pressure  
Sea Level Pressure 30.16 in    
Wind  
Wind Speed 10 mph (NNW)    
Max Wind Speed 22 mph    
Max Gust Speed 26 mph    
Visibility 10 miles    
Events      
T = Trace of Precipitation, MM = Missing Value Source: NWS Daily Summary

Daily Weather History Graph

Daily Weather History Graph

Search for Another Location

Airport or City:

Trip Planner

Search our weather history database for the weather conditions in past years. The results will help you decide how hot, cold, wet, or windy it might be!

Date:

Astronomy

May. 20, 2012 Rise Set
Actual Time 6:10 AM CDT 8:49 PM CDT
Civil Twilight 5:38 AM CDT 9:21 PM CDT
Nautical Twilight 4:59 AM CDT 10:01 PM CDT
Astronomical Twilight 4:14 AM CDT 10:46 PM CDT
Moon 5:52 AM CDT (5/20) 8:49 PM CDT (5/20)
Length of Visible Light 15h 42m
Length of Day
14h 38m
Waning Crescent, 0% of the Moon is Illuminated
May 20
Waning Crescent
May 20
New
May 28
First Quarter
Jun 4
Full
Jun 11
Last Quarter

Hourly Weather History & Observations

Time (CDT) Temp. Dew Point Humidity Pressure Visibility Wind Dir Wind Speed Gust Speed Precip Events Conditions
12:10 AM 57.2 °F 53.6 °F 88% 30.00 in 10.0 mi NW 12.7 mph - N/A   Overcast
12:53 AM 57.9 °F 54.0 °F 87% 29.99 in 10.0 mi NW 13.8 mph - N/A   Overcast
1:53 AM 57.0 °F 54.0 °F 89% 30.02 in 10.0 mi NW 11.5 mph - N/A   Overcast
2:53 AM 55.9 °F 54.0 °F 93% 30.03 in 10.0 mi NNW 13.8 mph - N/A   Overcast
3:02 AM 55.4 °F 53.6 °F 94% 30.05 in 10.0 mi NNW 12.7 mph - N/A   Overcast
3:53 AM 55.9 °F 53.1 °F 90% 30.04 in 10.0 mi NW 13.8 mph - N/A   Mostly Cloudy
4:14 AM 55.4 °F 53.6 °F 94% 30.08 in 10.0 mi NW 13.8 mph - N/A   Mostly Cloudy
4:53 AM 55.0 °F 52.0 °F 89% 30.07 in 10.0 mi NW 10.4 mph - N/A   Clear
5:53 AM 53.1 °F 51.1 °F 93% 30.09 in 10.0 mi NNW 11.5 mph - N/A   Clear
6:53 AM 53.1 °F 51.1 °F 93% 30.13 in 8.0 mi NW 8.1 mph - N/A   Clear
7:53 AM 55.9 °F 52.0 °F 87% 30.16 in 8.0 mi NNW 12.7 mph - N/A   Clear
8:46 AM 57.2 °F 51.8 °F 82% 30.19 in 10.0 mi NNW 15.0 mph - N/A   Mostly Cloudy
8:53 AM 57.9 °F 51.1 °F 78% 30.19 in 10.0 mi NNW 13.8 mph 20.7 mph N/A   Mostly Cloudy
9:01 AM 57.2 °F 51.8 °F 82% 30.19 in 10.0 mi NNW 16.1 mph - N/A   Scattered Clouds
9:29 AM 60.8 °F 48.2 °F 63% 30.20 in 10.0 mi North 16.1 mph 24.2 mph N/A   Mostly Cloudy
9:39 AM 60.8 °F 48.2 °F 63% 30.21 in 10.0 mi NNW 19.6 mph 24.2 mph N/A   Scattered Clouds
9:53 AM 61.0 °F 48.9 °F 64% 30.20 in 10.0 mi NNW 15.0 mph 23.0 mph N/A   Mostly Cloudy
10:53 AM 63.0 °F 46.9 °F 56% 30.22 in 10.0 mi North 16.1 mph - N/A   Partly Cloudy
11:53 AM 64.0 °F 48.0 °F 56% 30.23 in 10.0 mi North 17.3 mph - N/A   Mostly Cloudy
12:53 PM 66.9 °F 46.0 °F 47% 30.23 in 10.0 mi North 12.7 mph 21.9 mph N/A   Scattered Clouds
1:53 PM 68.0 °F 43.0 °F 40% 30.22 in 10.0 mi NNE 9.2 mph - N/A   Clear
2:53 PM 70.0 °F 44.1 °F 39% 30.22 in 10.0 mi NNE 13.8 mph 18.4 mph N/A   Mostly Cloudy
3:53 PM 70.0 °F 43.0 °F 38% 30.22 in 10.0 mi Variable 6.9 mph 19.6 mph N/A   Clear
4:53 PM 71.1 °F 43.0 °F 36% 30.20 in 10.0 mi North 6.9 mph 18.4 mph N/A   Clear
5:53 PM 70.0 °F 42.1 °F 36% 30.21 in 10.0 mi North 9.2 mph 17.3 mph N/A   Clear
6:53 PM 70.0 °F 43.0 °F 38% 30.20 in 10.0 mi NNE 12.7 mph - N/A   Clear
7:53 PM 66.9 °F 42.1 °F 40% 30.21 in 10.0 mi NNE 8.1 mph - N/A   Clear
8:53 PM 60.1 °F 45.0 °F 57% 30.22 in 10.0 mi NNE 6.9 mph - N/A   Clear
9:53 PM 57.0 °F 46.0 °F 67% 30.25 in 10.0 mi NNE 4.6 mph - N/A   Clear
10:53 PM 57.0 °F 46.0 °F 67% 30.27 in 10.0 mi Calm Calm - N/A   Clear
11:53 PM 53.1 °F 46.9 °F 80% 30.28 in 10.0 mi East 3.5 mph - N/A   Clear